User: anonymous
Location: Heilwood
(40.6210°N, 78.9150°W)
Time: 07:39:02
(UTC-04:00)
Language:

Iridium 4 Rocket - Orbit

View from above orbital plane
View from above orbital plane
View from above satellite
View from above satellite

Ground track
Ground track

The orbit data is extracted from the following two-line orbital elements,

1 24797U 97020F   14244.45080588  .00000458  00000-0  92651-4 0  7497
2 24797 086.9001 006.6207 0230048 115.7993 290.4764 14.43163921910824
Epoch (UTC): 01 September 2014 10:49:09
Eccentricity: 0.0230048
inclination: 86.9001°
perigee height: 584 km
apogee height: 912 km
right ascension of ascending node: 6.6207°
argument of perigee: 115.7993°
revolutions per day: 14.43163921
mean anomaly at epoch: 290.4764°
orbit number at epoch: 91082

The dashed part of the orbit path shows where the satellite is in the earth's shadow,  

DLR